Showing default

COSMOS 2091, 20736

Orbit data source: Space-Track

COSMOS 2091, 20736 is a payload satellite owned by UNKS (CIS) in LEO that was launched on Wed, 08 Aug 1990 UTC via a TSIKLON-3 launch vehicle from the Plesetsk Missile And Space Complex (PKMTR). Payload-class satellites include a variety of spacecraft equipped with specific instruments for various scientific and technological missions. These include communications satellites like Starlink; space stations such as the ISS; scientific satellites like the Hubble; Earth observation satellites from companies like Planet Labs, Umbra, and HawkEye 360; GPS; miniature CubeSats for education and research; and military/defense satellites.

Loading next visibility...
Identifier
20736, 1990-070B
Orbit
LEO
Country
Flag of CISCIS
Related business
Manufacturer
NPO PM
Mission
Defense Communications
Bus & Motor
STRELA-3, Unknown motor
Mass
225 kg wet, 225 kg dry
Launch date (UTC)
1990-08-08 (35 years ago)
Launch vehicle
TSIKLON-3
Launch site
Plesetsk Missile And Space Complex (PKMTR)
Object type
Payload
Rocket body
Debris
Shape & HBR
Cyl, 0.8 m
Radar Cross Section
1.257 m², Large (>1 m²)

Expand to show TLE details & history
Last TLE update: 1 day ago

TLE from 1 day ago
0 COSMOS 2091
1 20736U 90070B   25257.44909043  .00000009  00000-0 -79222-5 0  9995
2 20736  82.5797 144.2236 0004215  26.3866 146.3911 12.62550929617519
Epoch: 2025-09-14T10:46Z
TLE epoch observation values (Epoch: 2025-09-14T10:46:41.413Z)
Latitude
7.06717°
Longitude
167.96252°
Altitude
1,417.263 km
Speed
7.151 km/s
True Right ascension
21h 33m 12s
True Declination
7° 01' 44"
Sunlit
Object was in full shadow at epoch
Visualization orbit readout
Latitude
Unknown
Longitude
Unknown
Altitude
Unknown
Speed
Unknown
Apparent Right ascension
Unknown
Apparent Declination
Unknown
Sunlit
N/A
Visualization observer readout
Local Sidereal Time
03:51:14
Azimuth
Unknown
Elevation
Unknown
Doppler factor
Unknown
Orbital elements
Apogee altitude
1,413.036 km
Perigee altitude
1,406.471 km
Semi-major axis
7,787.89 km
Eccentricity
0.00042
Inclination
82.5797°
RAAN
144.2236°
Arg. of periapsis
26.3866°
True anomaly
146.41782°
Mean anomaly
146.3911°
Eccentric anomaly
146.40446°
Mean motion
3.15801 °/min
Orbital period
114 mins
BSTAR
-0.0000079222
Loading maneuver chart data...
Computing Atmospheric mass density...
Loading historical data...
Loading historical data...
Loading historical data...
Loading historical data...
Loading historical data...
Loading historical data...
Loading historical data...

Documentation

Showing up to 5 results
|